N75704 KAMA-KTDW

Flight info

Callsign N75704
Flight time 0h -18m
Altitude 4500
Route KTDW CLOSED TRAFFIC
Aircraft C172/L-S/C

Departure

Time 2026-05-04 15:09
Airport Rick Husband Amarillo International Airport (KAMA)

Arrival

Time 2026-05-04 14:51
Airport Tradewind Airport (KTDW)
Time Latitude Longitude Altitude Speed Heading
2026-05-04 14:50 35.17077 -101.82754 3648 ft 0 kts 113°
2026-05-04 14:59 35.17049 -101.82750 3651 ft 10 kts 180°
2026-05-04 14:59 35.16959 -101.82756 3650 ft 10 kts 187°
2026-05-04 14:59 35.16922 -101.82718 3648 ft 3 kts 85°
2026-05-04 15:00 35.16872 -101.82693 3645 ft 16 kts 182°
2026-05-04 15:00 35.16732 -101.82692 3649 ft 16 kts 179°
2026-05-04 15:00 35.16707 -101.82692 3649 ft 0 kts 179°
2026-05-04 15:01 35.16559 -101.82691 3649 ft 23 kts 180°
2026-05-04 15:01 35.16436 -101.82688 3650 ft 8 kts 173°
2026-05-04 15:01 35.16429 -101.82674 3648 ft 0 kts 89°
2026-05-04 15:06 35.16428 -101.82659 3650 ft 7 kts 90°
2026-05-04 15:07 35.16652 -101.82643 3650 ft 47 kts 358°
2026-05-04 15:07 35.17067 -101.82715 3671 ft 63 kts 311°
2026-05-04 15:07 35.17136 -101.83164 3708 ft 71 kts 225°
2026-05-04 15:07 35.16717 -101.83578 3751 ft 86 kts 220°
2026-05-04 15:08 35.16147 -101.83923 3779 ft 97 kts 226°
2026-05-04 15:08 35.15765 -101.84549 3912 ft 94 kts 227°
2026-05-04 15:08 35.15234 -101.84944 4035 ft 84 kts 223°
2026-05-04 15:08 35.14769 -101.85253 4183 ft 69 kts 229°
2026-05-04 15:09 35.14347 -101.85505 4332 ft 66 kts 231°
2026-05-04 15:09 35.13906 -101.85750 4439 ft 69 kts 232°
2026-05-04 15:09 35.13342 -101.85734 4568 ft 101 kts 173°
2026-05-04 15:10 35.12066 -101.85523 4810 ft 90 kts 193°
2026-05-04 15:10 35.11429 -101.85411 4928 ft 91 kts 193°
2026-05-04 15:10 35.10227 -101.85332 5139 ft 82 kts 197°
2026-05-04 15:11 35.09662 -101.85341 5201 ft 84 kts 198°
2026-05-04 15:11 35.09074 -101.85342 5259 ft 86 kts 198°
2026-05-04 15:11 35.08446 -101.85339 5331 ft 94 kts 197°
2026-05-04 15:11 35.07763 -101.85332 5406 ft 101 kts 196°
2026-05-04 15:12 35.07035 -101.85322 5472 ft 108 kts 194°
2026-05-04 15:12 35.06280 -101.85302 5586 ft 109 kts 193°
2026-05-04 15:12 35.05515 -101.85284 5691 ft 111 kts 194°
2026-05-04 15:12 35.04753 -101.85264 5786 ft 111 kts 192°
2026-05-04 15:13 35.03967 -101.85246 5886 ft 114 kts 193°
2026-05-04 15:13 35.03170 -101.85229 5982 ft 115 kts 193°
2026-05-04 15:13 35.02369 -101.85208 6089 ft 117 kts 194°
2026-05-04 15:13 35.01550 -101.85192 6183 ft 118 kts 193°
2026-05-04 15:14 35.00735 -101.85170 6277 ft 117 kts 192°
2026-05-04 15:14 34.99918 -101.85151 6348 ft 119 kts 192°
2026-05-04 15:14 34.99095 -101.85135 6347 ft 120 kts 193°
2026-05-04 15:14 34.98262 -101.85115 6350 ft 120 kts 192°
2026-05-04 15:15 34.97411 -101.85096 6353 ft 125 kts 192°
2026-05-04 15:15 34.96531 -101.85077 6352 ft 126 kts 191°
2026-05-04 15:15 34.95675 -101.85082 6349 ft 116 kts 206°
2026-05-04 15:16 34.95362 -101.86410 6360 ft 87 kts 280°
2026-05-04 15:16 34.95423 -101.87129 6356 ft 84 kts 281°
2026-05-04 15:16 34.95559 -101.88525 6373 ft 82 kts 285°
2026-05-04 15:17 34.95676 -101.89192 6367 ft 82 kts 288°
2026-05-04 15:17 34.94934 -101.89527 6075 ft 149 kts 92°
2026-05-04 15:17 34.95068 -101.88309 5977 ft 147 kts 75°
2026-05-04 15:18 34.95207 -101.87094 5991 ft 143 kts 74°
2026-05-04 15:18 34.95361 -101.85877 5998 ft 140 kts 77°
2026-05-04 15:18 34.95432 -101.84813 5996 ft 114 kts 83°
2026-05-04 15:19 34.95355 -101.83204 5907 ft 89 kts 85°
2026-05-04 15:19 34.95335 -101.82468 5897 ft 84 kts 72°
2026-05-04 15:19 34.95701 -101.81194 5728 ft 81 kts 45°
2026-05-04 15:20 34.95945 -101.80546 5620 ft 72 kts 59°
2026-05-04 15:20 34.96150 -101.79929 5214 ft 99 kts 86°
2026-05-04 15:20 34.96091 -101.79099 5221 ft 97 kts 90°
2026-05-04 15:20 34.96003 -101.78262 5128 ft 106 kts 113°
2026-05-04 15:21 34.95440 -101.77643 4997 ft 121 kts 147°
2026-05-04 15:21 34.94817 -101.76995 5104 ft 113 kts 151°
2026-05-04 15:21 34.93673 -101.76570 5305 ft 79 kts 224°
2026-05-04 15:22 34.93125 -101.76785 5429 ft 79 kts 225°
2026-05-04 15:22 34.92597 -101.77030 5516 ft 82 kts 221°
2026-05-04 15:22 34.91448 -101.77646 5699 ft 96 kts 220°
2026-05-04 15:23 34.90839 -101.77992 5785 ft 98 kts 221°
2026-05-04 15:23 34.90226 -101.78336 5904 ft 97 kts 220°
2026-05-04 15:23 34.89614 -101.78661 6025 ft 95 kts 221°
2026-05-04 15:23 34.89001 -101.78988 6146 ft 97 kts 220°
2026-05-04 15:24 34.87791 -101.79680 6355 ft 99 kts 223°
2026-05-04 15:24 34.86485 -101.80520 6362 ft 111 kts 223°
2026-05-04 15:25 34.85818 -101.80974 6363 ft 106 kts 232°
2026-05-04 15:25 34.85272 -101.81564 6364 ft 106 kts 236°
2026-05-04 15:25 34.84715 -101.82160 6360 ft 109 kts 228°
2026-05-04 15:26 34.83072 -101.82326 6352 ft 121 kts 194°
2026-05-04 15:26 34.82226 -101.82324 6351 ft 123 kts 194°
2026-05-04 15:26 34.80489 -101.82322 6354 ft 126 kts 193°
2026-05-04 15:27 34.79623 -101.82319 6356 ft 124 kts 194°
2026-05-04 15:27 34.77906 -101.82313 6348 ft 121 kts 194°
2026-05-04 15:28 34.76227 -101.82252 6329 ft 134 kts 160°
2026-05-04 15:28 34.75746 -101.81270 6313 ft 137 kts 110°
2026-05-04 15:28 34.74288 -101.80831 6375 ft 96 kts 208°
2026-05-04 15:29 34.73721 -101.80948 6346 ft 75 kts 213°
2026-05-04 15:30 34.71622 -101.81146 6106 ft 80 kts 206°
2026-05-04 15:30 34.69976 -101.81303 5999 ft 92 kts 199°
2026-05-04 15:31 34.68752 -101.81343 6263 ft 86 kts 202°
2026-05-04 15:31 34.68148 -101.81391 6324 ft 89 kts 206°
2026-05-04 15:32 34.65916 -101.81641 6277 ft 120 kts 200°
2026-05-04 15:32 34.64284 -101.81779 6359 ft 115 kts 201°
2026-05-04 15:33 34.62758 -101.82025 6341 ft 101 kts 206°
2026-05-04 15:34 34.61151 -101.81361 5438 ft 140 kts 162°
2026-05-04 15:34 34.60388 -101.81337 5642 ft 120 kts 179°
2026-05-04 15:34 34.58619 -101.81133 5482 ft 128 kts 197°
2026-05-04 15:35 34.56970 -101.81299 5754 ft 112 kts 200°
2026-05-04 15:35 34.56240 -101.81367 5971 ft 100 kts 200°
2026-05-04 15:35 34.55578 -101.81409 6127 ft 94 kts 201°
2026-05-04 15:36 34.54275 -101.81506 6363 ft 95 kts 202°
2026-05-04 15:36 34.53597 -101.81561 6370 ft 100 kts 201°
2026-05-04 15:36 34.52894 -101.81629 6384 ft 103 kts 201°
2026-05-04 15:37 34.52179 -101.81710 6381 ft 105 kts 200°
2026-05-04 15:37 34.51453 -101.81812 6385 ft 106 kts 201°
2026-05-04 15:37 34.50723 -101.81918 6377 ft 100 kts 201°
2026-05-04 15:37 34.50109 -101.81993 6259 ft 85 kts 206°
2026-05-04 15:38 34.49553 -101.82129 6141 ft 88 kts 214°
2026-05-04 15:38 34.48928 -101.82350 6046 ft 101 kts 219°
2026-05-04 15:38 34.48214 -101.82675 5959 ft 112 kts 216°
2026-05-04 15:38 34.47614 -101.82935 5940 ft 79 kts 220°
2026-05-04 15:39 34.47160 -101.83250 5766 ft 82 kts 233°
2026-05-04 15:39 34.46399 -101.83305 5548 ft 143 kts 164°
2026-05-04 15:39 34.44505 -101.82218 5218 ft 151 kts 189°
2026-05-04 15:40 34.43486 -101.82216 5013 ft 142 kts 192°
2026-05-04 15:40 34.42551 -101.82218 5042 ft 122 kts 193°
2026-05-04 15:40 34.41758 -101.82212 5183 ft 109 kts 194°
2026-05-04 15:40 34.41016 -101.82215 5329 ft 105 kts 197°
2026-05-04 15:41 34.40317 -101.82214 5491 ft 99 kts 197°
2026-05-04 15:41 34.39645 -101.82213 5649 ft 94 kts 199°
2026-05-04 15:41 34.38998 -101.82213 5779 ft 92 kts 199°
2026-05-04 15:41 34.38369 -101.82211 5894 ft 89 kts 199°